This is the latest recevied weather packets stored in our database for station/object VA3ZFM-10. If no packets are shown the sender has not sent any weather packets the latest 10 day(s).
| Time | Temp. | Humidity | Pressure | Rain* | Wind** | Luminosity | Snow |
|---|---|---|---|---|---|---|---|
| 1777822366 | 8.33° C | 34% | 1009.4 hPa | 0 mm | - | - | - |
| 1777822063 | 8.89° C | 35% | 1009.5 hPa | 0 mm | - | - | - |
| 1777821762 | 8.89° C | 34% | 1009.7 hPa | 0 mm | - | - | - |
| 1777821458 | 9.44° C | 35% | 1009.5 hPa | 0 mm | - | - | - |
| 1777821156 | 8.89° C | 36% | 1009.6 hPa | 0 mm | - | - | - |
| 1777820852 | 8.89° C | 37% | 1009.7 hPa | 0 mm | - | - | - |
| 1777820548 | 8.89° C | 37% | 1009.9 hPa | 0 mm | - | - | - |
| 1777820245 | 8.33° C | 37% | 1009.6 hPa | 0 mm | - | - | - |
| 1777819943 | 7.78° C | 37% | 1010.1 hPa | 0 mm | - | - | - |
| 1777819640 | 8.33° C | 37% | 1010.1 hPa | 0 mm | - | - | - |
| 1777819338 | 8.89° C | 36% | 1010.2 hPa | 0 mm | - | - | - |
| 1777819034 | 8.33° C | 37% | 1010.1 hPa | 0 mm | - | - | - |
| 1777818732 | 7.78° C | 38% | 1010.3 hPa | 0 mm | - | - | - |
| 1777818428 | 8.33° C | 38% | 1010.1 hPa | 0 mm | - | - | - |
| 1777818125 | 7.22° C | 39% | 1010.2 hPa | 0 mm | - | - | - |
| 1777817821 | 7.78° C | 39% | 1010.4 hPa | 0 mm | - | - | - |
| 1777817519 | 7.78° C | 38% | 1010.6 hPa | 0 mm | - | - | - |
| 1777817215 | 7.22° C | 40% | 1010.5 hPa | 0 mm | - | - | - |
| 1777816913 | 7.22° C | 41% | 1010.6 hPa | 0 mm | - | - | - |
| 1777816609 | 7.22° C | 40% | 1010.6 hPa | 0 mm | - | - | - |
| 1777816306 | 6.67° C | 41% | 1010.5 hPa | 0 mm | - | - | - |
| 1777816004 | 6.67° C | 42% | 1010.8 hPa | 0 mm | - | - | - |
| 1777815701 | 7.22° C | 41% | 1010.5 hPa | 0 mm | - | - | - |
| 1777815398 | 6.67° C | 43% | 1010.7 hPa | 0 mm | - | - | - |
| 1777815095 | 6.67° C | 44% | 1010.7 hPa | 0 mm | - | - | - |
* Rain latest hour (hover to see other rain measurements)
** Current wind speed in m/s (hover to see current wind gust speed)